Terminal Aerodrome Forecast
Issued by NWS

Home | Current Version | Previous Version | Text Only | Print | Product List | Glossary On
Versions: 1 2 3 4 5 6 7 8 9 10 11 12 13 14 15 16 17
000
FTUS44 KLZK 050500
TAFLLQ
TAF
KLLQ 050536Z 0506/0606 16003KT P6SM SCT050 SCT250
     FM050800 00000KT 6SM BR SCT015
      TEMPO 0508/0512 2SM BR BKN015
     FM051300 21005KT P6SM VCSH SCT015 BKN050
     FM051900 21006KT P6SM VCTS SCT035CB BKN100 OVC250=

USA.gov is the U.S. government's official web portal to all federal, state and local government web resources and services.